Regional Weather Roundup
Issued by NWS Midland/Odessa, TX

Skip options and go directly to product.
Home | Oldest Version | Next Version | Current Version | All | Text Only | Save Text | Print | Product List | Glossary On

Skip product version selection by date and time.   
799
ASUS44 KMAF 250401
RWRMAF
MIDLAND AREA WEATHER ROUNDUP
NATIONAL WEATHER SERVICE MIDLAND TX
1100 PM CDT SUN MAY 24 2015

...IN SOUTHWEST TEXAS AND SOUTHEAST NEW MEXICO...

CITY           SKY/WX    TMP DP  RH WIND       PRES   REMARKS
ALPINE         PTCLDY    60  37  42 SW3       29.97S
ANDREWS        FAIR      67  40  37 S7        29.86R
ARTESIA        MOCLDY    68  25  19 SW12      29.85R
BIG SPRING     CLEAR     69  39  34 SE8       29.88R
CARLSBAD       PTCLDY    64  34  32 W12       29.82R
DRYDEN           N/A     77  56  48 SE8       29.83R
FORT STOCKTON  CLEAR     69  40  34 S9        29.85R
GUAD PASS      CLEAR     64  17  16 W9        29.97R
HOBBS          CLEAR     57  39  51 S7        29.88R
MARFA          PTCLDY    61  39  44 E8        29.95R
MIDLAND AIRPK  CLEAR     72  41  33 SE8       29.87R
MIDLAND INTL   CLEAR     68  48  48 SE9       29.86R
ODESSA           N/A    N/A N/A N/A MISG      29.86R
PECOS          CLEAR     65  48  53 CALM      29.81R
PRESIDIO       FAIR      79  29  16 NE8       29.77R
SEMINOLE       PTCLDY    61  40  45 S7        29.86R
SNYDER         CLEAR     69  46  44 S9        29.86R
WINK           PTCLDY    69  41  36 SE8       29.82R
$$
...OTHER STATIONS IN TEXAS...

CITY           SKY/WX    TMP DP  RH WIND       PRES   REMARKS
ABILENE        CLEAR     71  65  81 SE13      29.86R
AMARILLO       PTCLDY    63  48  58 S10       29.82R
AUSTIN         PTCLDY    73  70  90 S12       29.90R
BROWNSVILLE    CLEAR     78  73  84 SE12      29.90R
CORPUS CHRISTI PTCLDY    77  73  87 S14       29.89R
DALLAS FTW     PTCLDY    69  68  96 SE7       29.89R
DEL RIO        CLEAR     76  65  68 E9        29.82R
EL PASO        MOCLDY    77  16  10 W15       29.86R
HOUSTON INT    PTCLDY    71  69  93 SE3       29.94R
LUBBOCK        CLEAR     67  43  41 S12       29.84R
SAN ANGELO     CLEAR     70  61  73 S8        29.86R
SAN ANTONIO    MOCLDY    77  72  84 SE13      29.90R
WACO           CLEAR     73  68  84 SE9       29.89R
WICHITA FALLS  NOT AVBL
$$
...OTHER LOCATIONS IN NEW MEXICO...

CITY           SKY/WX    TMP DP  RH WIND       PRES   REMARKS
ALAMAGORDO     PTCLDY    64  21  19 SE6       29.88R
ALBUQUERQUE    CLOUDY    54  45  71 S12       30.00R
CANNON AFB     NOT AVBL
CLOVIS         MOCLDY    61  45  55 SE7       29.84F
HOLLOMAN AFB   PTCLDY    67  27  22 SW3       29.86R
ROSWELL        MOCLDY    66  31  27 SW14      29.82R
RUIDOSO        CLEAR     54  19  26 SW14      30.01S
SANTA FE       PTCLDY    50  36  58 SW5       29.98R
TRUTH OR CONSE MOCLDY    66  32  28 NW16G23   29.92R
TUCUMCARI      MOCLDY    57  47  69 W3        29.82R
$$

USA.gov is the U.S. government's official web portal to all federal, state and local government web resources and services.